Location: Helion Bumpstead
(52.0500°N, 0.4000°E)
Time: 20:17:37
(UTC+00:00)

CZ-2D R/B - Pass Details

Date: 15 November 2025
Orbit: 788 x 842 km, 98.9° (Epoch: 14 December)

Event Time Altitude Azimuth Distance (km) Brightness Sun altitude
Rises 03:56:16 0° 10° (N) 3,326 5.5 -30.8°
Reaches altitude 10° 03:58:49 10° 0° (N) 2,384 4.6 -30.4°
Enters shadow 03:59:21 13° 357° (N) 2,201 4.4 -30.4°
